SCP
0 0 0 0 0 0 0 0 0 0 0 -0 -0 -0 0 0 1 1 1 1 1 1 2 3 8 11 14 9 7 6 7 3 2 1 1 0 0 0 0 0 0 0 0 0
0 0 0 0 0 0 0 0 -0 0 0 0 -0 0 0 0 0 0 1 1 1 2 2 3 4 6 7 8 8 3 1 1 0 0 0 0 0 0 0 0 0 0 0 0
0 0 0 -0 -0 -0 0 0 0 0 0 0 0 -0 -0 0 0 0 1 1 1 2 2 3 3 4 4 1 1 1 0 0 0 0 0 0 0 0 0 0 0 0 0 0
0 0 0 0 0 0 0 0 0 0 0 0 0 -0 0 0 0 0 0 0 0 1 1 2 1 0 1 0 0 0 0 0 -0 -0 -0 -0 0 0 0 0 0 0 0 0
0 0 0 0 0 0 0 0 0 0 0 0 0 0 0 0 0 1 1 0 1 0 0 1 0 0 0 0 0 0 0 -0 -0 -0 0 0 0 -0 0 0 0 0 0 0
0 0 0 0 0 0 0 0 0 0 0 0 0 0 0 0 1 1 1 1 1 0 0 0 0 0 0 0 0 0 0 0 0 0 0 0 0 0 0 0 0 0 0 0
0 0 0 0 0 -0 0 0 0 0 0 0 0 0 1 1 1 1 1 1 0 0 0 0 0 0 0 0 0 0 0 0 0 0 0 0 0 0 0 0 0 0 0 0
0 0 0 0 -0 0 0 0 0 0 0 0 1 1 1 1 0 1 1 1 0 0 0 0 0 0 0 0 0 0 0 0 0 0 0 0 0 0 0 0 0 0 0 0
0 0 0 0 0 0 0 0 0 0 0 0 1 1 0 1 0 0 0 0 0 0 0 0 0 0 0 0 0 0 0 0 0 0 0 0 0 0 0 0 0 0 0 0
0 0 0 0 0 0 0 0 0 0 0 0 0 0 0 0 -0 0 0 0 0 0 0 0 0 0 0 0 0 0 0 0 0 0 0 0 0 0 0 0 0 0 0 0
0 0 0 0 0 0 0 0 0 0 0 0 0 0 0 0 0 0 0 0 0 0 0 0 0 0 0 0 0 0 0 0 0 0 0 0 0 0 0 0 0 0 0 0
0 0 0 0 0 0 0 0 0 0 1 1 1 0 0 0 1 0 1 0 0 0 0 0 0 0 0 0 0 0 0 0 0 0 0 0 0 0 0 0 0 0 0 0
0 0 0 0 0 0 0 0 0 1 1 1 2 2 1 1 1 1 0 0 0 0 0 0 0 0 0 0 0 0 0 0 0 0 0 0 0 0 0 0 0 0 0 0
0 0 0 0 0 0 0 1 2 2 2 2 2 2 2 1 1 1 1 1 0 0 0 0 0 0 0 0 0 0 0 0 0 0 0 0 0 0 0 0 0 0 -0 0
0 0 0 0 1 1 2 2 2 1 1 2 1 1 1 1 1 1 0 0 0 0 0 0 0 0 0 0 0 0 0 0 0 0 0 0 0 0 0 0 0 0 0 0
0 0 0 1 1 1 1 1 1 1 1 1 1 1 1 1 1 0 0 0 0 0 0 0 0 0 0 0 0 0 0 0 0 0 0 0 0 0 0 0 0 0 0 0
0 0 0 1 0 0 0 0 0 0 0 0 1 1 1 1 1 0 0 0 0 0 0 0 0 0 0 0 0 0 0 0 0 0 0 0 0 0 0 0 0 0 0 0
0 0 0 0 1 1 1 0 0 0 0 0 1 1 1 1 1 1 1 0 0 0 0 0 0 0 0 0 0 0 0 0 0 0 0 0 0 0 0 0 0 0 0 0
0 0 0 0 0 0 1 1 1 1 1 1 1 1 1 1 1 1 1 1 1 1 0 0 0 0 0 0 0 0 0 0 0 0 0 0 0 0 0 0 0 -0 0 0
0 0 0 0 0 0 0 0 0 1 1 1 1 1 1 1 2 1 1 1 1 1 1 0 0 0 0 0 0 0 0 0 0 0 0 0 0 0 0 0 0 -0 -0 0
0 0 0 1 0 1 0 1 0 0 1 1 1 1 1 2 1 1 1 1 1 1 0 0 0 0 0 0 0 0 0 0 0 0 0 0 0 0 0 0 -0 -0 -0 -0
0 0 0 0 0 0 0 0 0 1 1 1 1 1 1 1 1 1 1 1 1 0 0 0 0 0 0 0 0 0 0 0 0 0 1 1 0 0 0 0 0 -0 0 0
1 1 1 1 0 0 0 0 0 0 0 1 1 0 0 0 0 0 0 0 0 0 0 0 0 0 0 0 0 0 0 0 0 0 0 0 0 0 0 0 0 0 0 0
1 1 1 0 0 0 0 0 0 0 0 0 0 0 0 0 0 0 0 0 0 0 0 0 0 0 0 0 0 0 0 0 0 0 0 0 0 0 0 0 0 0 0 -0
1 0 0 0 0 0 0 0 0 0 0 0 0 0 0 0 0 0 0 0 0 0 0 0 0 0 0 0 0 0 0 0 0 0 0 0 0 0 -0 -0 0 -0 0 0
0 0 0 0 0 0 0 0 0 0 0 0 0 0 0 0 0 0 0 0 0 0 0 0 0 0 0 0 0 0 0 0 0 0 0 -0 -0 0 0 -0 -0 -0 -0 -0
0 0 0 0 0 0 0 0 0 0 0 0 0 0 0 0 0 0 0 0 0 0 0 0 0 0 0 0 0 0 0 0 0 0 -0 0 0 -0 -0 -0 0 -0 -0 0
Wind_Speed_500mb
45 29 34 42 47 53 40 41 38 31 23 19 43 58 21 23 25 23 22 23 24 28 32 28 32 38 40 46 33 40 48 48 43 32 22 16 10 5 7 14 17 21 22 24
46 33 47 42 45 49 53 49 48 41 19 37 25 80 3 16 28 22 24 28 33 35 37 36 43 56 33 38 39 49 36 37 35 26 12 1 9 14 17 14 20 21 26 27
39 56 44 60 62 47 41 47 51 39 41 27 16 16 103 13 13 26 28 35 39 43 46 37 41 58 51 48 48 47 41 35 29 26 19 19 20 22 22 22 21 24 25 24
32 35 43 36 46 41 44 40 44 48 39 41 60 105 43 10 15 30 41 39 44 45 51 54 44 50 76 60 43 41 44 42 31 23 25 38 34 36 21 17 18 19 21 19
27 34 37 49 31 38 41 44 45 43 38 33 26 27 19 13 12 31 42 43 49 49 51 51 56 59 62 56 47 41 29 12 8 7 28 28 24 19 13 14 14 15 14 16
23 31 31 34 16 22 22 26 31 38 39 33 35 21 20 38 33 43 46 52 56 54 57 61 57 59 58 49 38 32 30 16 19 29 28 19 15 14 9 7 7 7 8 9
28 23 34 7 17 32 21 5 21 39 38 36 30 18 33 39 41 49 53 57 57 59 57 60 61 58 46 30 19 16 23 27 26 22 18 17 14 10 4 3 4 3 3 8
29 34 32 19 35 31 15 21 23 35 11 9 41 42 40 39 49 56 57 58 59 59 52 53 49 37 31 32 30 30 28 22 20 20 18 17 12 8 9 6 3 7 11 11
29 32 30 7 17 16 11 9 8 11 5 13 32 33 39 47 50 53 56 59 57 55 50 41 37 33 36 36 33 30 25 21 22 22 20 15 10 9 7 10 7 8 12 13
39 19 8 15 11 4 4 9 7 5 4 12 28 36 45 48 52 56 62 60 53 50 48 45 38 34 32 32 29 27 26 25 24 21 18 15 10 9 9 8 8 9 10 13
24 8 10 9 8 6 6 6 6 4 8 16 30 43 52 55 58 66 62 57 51 47 45 44 41 37 34 32 30 27 25 24 23 20 18 16 17 12 11 16 16 9 7 10
23 21 26 24 10 5 11 18 13 11 16 22 36 47 53 59 67 69 60 53 46 43 43 43 40 38 35 31 30 29 27 23 20 17 15 12 14 17 15 7 7 8 11 14
4 9 13 13 17 18 21 23 21 21 28 37 41 49 53 59 68 60 55 50 49 48 46 43 41 39 36 34 31 29 23 22 20 17 15 13 13 11 11 3 8 10 9 12
22 8 11 13 23 22 27 22 22 28 36 42 47 50 54 60 63 55 52 50 47 46 45 42 39 37 36 34 31 27 24 27 20 18 16 14 13 10 9 7 9 8 10 16
18 18 21 14 9 16 22 27 36 41 45 52 52 55 57 60 56 52 50 49 48 46 43 41 38 36 36 33 30 28 26 24 21 19 16 15 11 10 9 9 8 9 11 16
11 10 20 16 23 27 34 38 42 45 48 54 56 54 53 54 52 52 50 50 50 46 44 41 37 36 35 33 32 29 27 27 26 21 19 16 15 12 11 10 10 11 11 9
20 18 23 30 30 31 36 39 40 41 43 45 48 49 51 52 51 51 49 45 40 42 42 40 38 37 35 34 32 26 25 25 32 25 23 20 19 16 13 11 12 10 12 13
15 22 4 42 41 29 32 34 33 35 37 41 45 46 50 51 52 51 49 46 41 38 38 37 37 36 35 34 33 27 26 28 28 30 26 24 23 19 19 18 17 15 11 16
13 25 34 22 37 40 29 21 29 24 30 36 44 46 46 45 44 46 46 45 42 40 39 37 40 37 35 37 35 28 28 28 34 32 30 29 29 26 24 25 22 21 18 14
27 26 38 21 14 18 19 15 14 24 24 32 37 40 42 42 41 42 41 40 36 32 34 36 40 38 35 34 38 33 33 35 36 37 39 39 39 29 28 27 21 24 22 20
31 25 31 34 28 30 29 26 24 27 28 30 34 37 39 37 37 38 37 35 31 30 30 35 37 35 35 36 37 36 32 35 32 42 39 40 41 40 29 33 28 29 19 21
47 52 54 39 36 38 33 31 29 27 27 29 31 32 33 33 34 33 29 19 32 31 29 30 35 36 35 36 35 33 34 33 31 29 27 35 44 38 31 31 30 29 26 23
37 43 45 45 39 39 36 32 30 29 29 28 29 30 31 29 29 26 22 27 19 23 25 24 30 35 39 36 34 34 28 33 30 34 32 35 45 46 37 41 30 18 26 23
46 40 42 38 33 32 33 28 26 26 25 25 25 24 22 22 15 15 9 24 30 26 24 25 31 35 40 35 37 34 36 40 27 29 28 31 32 34 27 27 36 28 25 27
43 41 39 37 32 29 29 26 24 22 21 17 15 17 18 13 11 18 15 15 23 24 21 28 34 36 32 34 36 37 35 27 27 31 22 22 25 29 40 32 25 28 32 33
39 34 32 29 29 27 25 22 18 16 15 14 11 12 13 11 14 16 13 16 11 11 19 19 18 20 24 28 30 28 26 25 24 24 26 25 29 29 24 23 24 26 29 26
32 33 32 29 27 26 23 21 19 19 16 13 12 11 12 13 15 15 15 9 12 7 11 15 18 20 17 15 16 16 12 12 16 22 26 32 30 29 20 21 25 25 23 28
Wind_Direction_500mb
230 182 259 218 201 222 206 228 243 220 204 259 279 311 224 169 158 148 138 132 132 129 141 138 125 139 145 148 148 161 159 171 171 157 165 188 192 248 285 277 284 287 284 296
243 215 165 275 269 203 209 213 224 245 215 208 301 346 244 202 165 165 153 143 139 142 144 148 142 146 134 129 140 155 141 139 126 110 111 32 340 326 291 297 308 294 297 302
231 246 208 195 216 218 213 216 221 212 230 184 89 49 287 170 185 168 159 151 146 149 147 153 154 143 148 150 140 136 118 97 85 87 81 21 3 333 299 295 306 310 304 311
235 248 252 246 245 240 245 228 237 234 217 210 174 207 249 193 188 153 155 153 150 154 148 156 154 154 131 137 134 135 106 91 73 42 359 338 304 270 280 288 315 307 308 316
229 222 241 237 249 237 233 230 233 244 246 247 220 236 224 191 205 166 156 152 151 154 146 145 145 139 141 141 136 131 119 108 13 10 306 256 246 252 259 311 304 311 325 342
231 237 261 237 209 245 237 261 238 234 237 232 219 197 226 195 167 152 153 152 152 152 148 146 147 145 147 149 156 155 152 151 248 249 230 230 237 249 265 283 290 344 359 6
240 241 236 262 347 227 226 243 236 224 223 219 226 197 117 136 144 147 150 151 151 150 151 151 150 153 151 155 161 161 152 164 170 184 195 198 194 198 206 97 51 49 17 359
228 241 247 101 179 231 62 50 13 9 317 163 111 117 126 143 146 148 150 153 152 149 148 150 152 155 142 141 146 145 151 158 158 165 159 167 165 112 121 112 96 33 42 36
223 220 237 305 84 72 60 93 319 11 18 108 115 127 143 147 151 152 154 155 154 150 143 146 148 149 148 148 149 151 151 148 147 149 145 132 119 103 93 85 104 77 49 35
224 201 153 184 131 124 18 1 12 329 299 197 151 156 154 155 155 155 156 154 154 151 146 145 147 147 152 152 150 151 152 146 140 139 138 129 117 121 127 120 101 80 55 37
250 243 191 160 228 228 218 263 273 280 211 177 163 161 158 157 155 155 156 157 157 153 146 145 146 151 153 157 152 150 149 150 144 143 135 137 148 134 131 140 135 93 74 41
233 224 231 251 255 282 290 275 250 201 178 170 167 162 160 157 155 157 157 155 153 148 147 147 149 151 155 158 160 158 155 155 157 162 146 157 133 152 149 103 61 72 65 51
348 98 28 344 309 289 273 259 229 197 172 158 158 159 158 152 153 157 156 156 153 151 150 152 156 160 165 166 163 160 161 167 169 167 172 173 184 200 206 283 6 24 36 37
302 306 274 267 267 253 246 217 182 169 163 156 154 154 152 149 153 153 154 154 153 151 154 157 160 167 171 170 167 167 172 176 174 179 185 184 189 202 214 238 256 271 324 7
250 253 261 253 214 206 168 164 158 154 153 147 150 150 151 152 155 156 155 154 154 154 157 162 165 171 172 173 173 176 178 183 180 190 191 191 199 213 228 240 255 269 287 287
242 245 232 158 164 156 151 151 147 146 149 145 147 151 153 151 152 154 156 158 158 162 166 168 170 176 177 178 179 182 187 191 189 198 206 208 214 230 238 245 252 264 278 292
203 170 183 148 148 138 146 141 143 143 145 146 149 151 152 154 155 158 161 163 164 170 171 173 174 180 182 185 185 190 194 208 199 204 215 222 226 231 242 254 258 276 277 251
93 142 297 169 147 118 102 123 132 141 149 152 154 156 159 163 164 165 166 167 169 172 177 180 180 186 189 193 194 196 207 213 215 214 222 228 232 235 240 248 256 269 282 271
217 176 114 54 108 102 99 112 119 131 146 159 161 163 166 168 169 170 171 172 174 178 184 187 193 195 198 201 201 205 218 221 219 217 224 232 236 238 241 240 265 263 258 253
173 139 126 194 126 108 70 70 112 133 151 160 165 163 167 171 172 173 176 180 185 189 191 194 206 203 207 213 217 215 228 230 233 232 233 233 244 228 242 231 254 253 257 249
139 149 171 143 161 133 162 162 163 155 157 164 163 164 169 168 174 177 179 186 190 194 190 204 208 213 215 219 223 226 233 247 245 246 228 237 238 239 230 248 239 237 246 257
154 147 137 134 126 126 134 135 133 131 138 148 151 158 162 165 170 173 182 200 185 208 205 209 214 214 216 214 221 228 232 242 253 253 240 238 238 233 229 226 233 260 235 253
143 134 125 129 134 129 125 121 125 133 136 138 143 153 160 168 172 181 199 198 193 216 198 214 216 215 224 218 227 234 249 255 261 258 249 246 234 225 217 218 224 265 233 242
136 129 123 123 124 116 114 120 128 130 136 144 155 163 169 171 192 192 206 188 199 213 205 227 232 228 232 233 234 242 261 262 250 272 237 252 238 216 198 221 228 258 234 247
128 127 129 128 124 125 128 132 130 134 142 153 165 180 190 203 201 199 199 210 224 219 226 236 236 243 244 229 240 250 257 265 261 255 260 240 207 184 196 221 225 204 237 260
120 122 123 127 129 130 130 129 130 139 146 147 155 165 171 185 188 185 194 191 221 218 207 228 239 253 234 235 243 252 260 260 260 227 216 190 186 192 201 209 236 240 254 257
118 121 121 121 124 127 129 126 125 128 131 139 140 148 162 169 185 174 187 197 189 208 210 227 239 239 222 226 227 241 232 215 208 190 189 190 192 195 199 216 241 246 247 250
Wind_Speed_850mb
45 29 34 42 47 53 40 41 38 31 23 19 43 58 21 23 25 23 22 23 24 28 32 28 32 38 40 46 33 40 48 48 43 32 22 16 10 5 7 14 17 21 22 24
46 33 47 42 45 49 53 49 48 41 19 37 25 80 3 16 28 22 24 28 33 35 37 36 43 56 33 38 39 49 36 37 35 26 12 1 9 14 17 14 20 21 26 27
39 56 44 60 62 47 41 47 51 39 41 27 16 16 103 13 13 26 28 35 39 43 46 37 41 58 51 48 48 47 41 35 29 26 19 19 20 22 22 22 21 24 25 24
32 35 43 36 46 41 44 40 44 48 39 41 60 105 43 10 15 30 41 39 44 45 51 54 44 50 76 60 43 41 44 42 31 23 25 38 34 36 21 17 18 19 21 19
27 34 37 49 31 38 41 44 45 43 38 33 26 27 19 13 12 31 42 43 49 49 51 51 56 59 62 56 47 41 29 12 8 7 28 28 24 19 13 14 14 15 14 16
23 31 31 34 16 22 22 26 31 38 39 33 35 21 20 38 33 43 46 52 56 54 57 61 57 59 58 49 38 32 30 16 19 29 28 19 15 14 9 7 7 7 8 9
28 23 34 7 17 32 21 5 21 39 38 36 30 18 33 39 41 49 53 57 57 59 57 60 61 58 46 30 19 16 23 27 26 22 18 17 14 10 4 3 4 3 3 8
29 34 32 19 35 31 15 21 23 35 11 9 41 42 40 39 49 56 57 58 59 59 52 53 49 37 31 32 30 30 28 22 20 20 18 17 12 8 9 6 3 7 11 11
29 32 30 7 17 16 11 9 8 11 5 13 32 33 39 47 50 53 56 59 57 55 50 41 37 33 36 36 33 30 25 21 22 22 20 15 10 9 7 10 7 8 12 13
39 19 8 15 11 4 4 9 7 5 4 12 28 36 45 48 52 56 62 60 53 50 48 45 38 34 32 32 29 27 26 25 24 21 18 15 10 9 9 8 8 9 10 13
24 8 10 9 8 6 6 6 6 4 8 16 30 43 52 55 58 66 62 57 51 47 45 44 41 37 34 32 30 27 25 24 23 20 18 16 17 12 11 16 16 9 7 10
23 21 26 24 10 5 11 18 13 11 16 22 36 47 53 59 67 69 60 53 46 43 43 43 40 38 35 31 30 29 27 23 20 17 15 12 14 17 15 7 7 8 11 14
4 9 13 13 17 18 21 23 21 21 28 37 41 49 53 59 68 60 55 50 49 48 46 43 41 39 36 34 31 29 23 22 20 17 15 13 13 11 11 3 8 10 9 12
22 8 11 13 23 22 27 22 22 28 36 42 47 50 54 60 63 55 52 50 47 46 45 42 39 37 36 34 31 27 24 27 20 18 16 14 13 10 9 7 9 8 10 16
18 18 21 14 9 16 22 27 36 41 45 52 52 55 57 60 56 52 50 49 48 46 43 41 38 36 36 33 30 28 26 24 21 19 16 15 11 10 9 9 8 9 11 16
11 10 20 16 23 27 34 38 42 45 48 54 56 54 53 54 52 52 50 50 50 46 44 41 37 36 35 33 32 29 27 27 26 21 19 16 15 12 11 10 10 11 11 9
20 18 23 30 30 31 36 39 40 41 43 45 48 49 51 52 51 51 49 45 40 42 42 40 38 37 35 34 32 26 25 25 32 25 23 20 19 16 13 11 12 10 12 13
15 22 4 42 41 29 32 34 33 35 37 41 45 46 50 51 52 51 49 46 41 38 38 37 37 36 35 34 33 27 26 28 28 30 26 24 23 19 19 18 17 15 11 16
13 25 34 22 37 40 29 21 29 24 30 36 44 46 46 45 44 46 46 45 42 40 39 37 40 37 35 37 35 28 28 28 34 32 30 29 29 26 24 25 22 21 18 14
27 26 38 21 14 18 19 15 14 24 24 32 37 40 42 42 41 42 41 40 36 32 34 36 40 38 35 34 38 33 33 35 36 37 39 39 39 29 28 27 21 24 22 20
31 25 31 34 28 30 29 26 24 27 28 30 34 37 39 37 37 38 37 35 31 30 30 35 37 35 35 36 37 36 32 35 32 42 39 40 41 40 29 33 28 29 19 21
47 52 54 39 36 38 33 31 29 27 27 29 31 32 33 33 34 33 29 19 32 31 29 30 35 36 35 36 35 33 34 33 31 29 27 35 44 38 31 31 30 29 26 23
37 43 45 45 39 39 36 32 30 29 29 28 29 30 31 29 29 26 22 27 19 23 25 24 30 35 39 36 34 34 28 33 30 34 32 35 45 46 37 41 30 18 26 23
46 40 42 38 33 32 33 28 26 26 25 25 25 24 22 22 15 15 9 24 30 26 24 25 31 35 40 35 37 34 36 40 27 29 28 31 32 34 27 27 36 28 25 27
43 41 39 37 32 29 29 26 24 22 21 17 15 17 18 13 11 18 15 15 23 24 21 28 34 36 32 34 36 37 35 27 27 31 22 22 25 29 40 32 25 28 32 33
39 34 32 29 29 27 25 22 18 16 15 14 11 12 13 11 14 16 13 16 11 11 19 19 18 20 24 28 30 28 26 25 24 24 26 25 29 29 24 23 24 26 29 26
32 33 32 29 27 26 23 21 19 19 16 13 12 11 12 13 15 15 15 9 12 7 11 15 18 20 17 15 16 16 12 12 16 22 26 32 30 29 20 21 25 25 23 28
Wind_Direction_850mb
230 182 259 218 201 222 206 228 243 220 204 259 279 311 224 169 158 148 138 132 132 129 141 138 125 139 145 148 148 161 159 171 171 157 165 188 192 248 285 277 284 287 284 296
243 215 165 275 269 203 209 213 224 245 215 208 301 346 244 202 165 165 153 143 139 142 144 148 142 146 134 129 140 155 141 139 126 110 111 32 340 326 291 297 308 294 297 302
231 246 208 195 216 218 213 216 221 212 230 184 89 49 287 170 185 168 159 151 146 149 147 153 154 143 148 150 140 136 118 97 85 87 81 21 3 333 299 295 306 310 304 311
235 248 252 246 245 240 245 228 237 234 217 210 174 207 249 193 188 153 155 153 150 154 148 156 154 154 131 137 134 135 106 91 73 42 359 338 304 270 280 288 315 307 308 316
229 222 241 237 249 237 233 230 233 244 246 247 220 236 224 191 205 166 156 152 151 154 146 145 145 139 141 141 136 131 119 108 13 10 306 256 246 252 259 311 304 311 325 342
231 237 261 237 209 245 237 261 238 234 237 232 219 197 226 195 167 152 153 152 152 152 148 146 147 145 147 149 156 155 152 151 248 249 230 230 237 249 265 283 290 344 359 6
240 241 236 262 347 227 226 243 236 224 223 219 226 197 117 136 144 147 150 151 151 150 151 151 150 153 151 155 161 161 152 164 170 184 195 198 194 198 206 97 51 49 17 359
228 241 247 101 179 231 62 50 13 9 317 163 111 117 126 143 146 148 150 153 152 149 148 150 152 155 142 141 146 145 151 158 158 165 159 167 165 112 121 112 96 33 42 36
223 220 237 305 84 72 60 93 319 11 18 108 115 127 143 147 151 152 154 155 154 150 143 146 148 149 148 148 149 151 151 148 147 149 145 132 119 103 93 85 104 77 49 35
224 201 153 184 131 124 18 1 12 329 299 197 151 156 154 155 155 155 156 154 154 151 146 145 147 147 152 152 150 151 152 146 140 139 138 129 117 121 127 120 101 80 55 37
250 243 191 160 228 228 218 263 273 280 211 177 163 161 158 157 155 155 156 157 157 153 146 145 146 151 153 157 152 150 149 150 144 143 135 137 148 134 131 140 135 93 74 41
233 224 231 251 255 282 290 275 250 201 178 170 167 162 160 157 155 157 157 155 153 148 147 147 149 151 155 158 160 158 155 155 157 162 146 157 133 152 149 103 61 72 65 51
348 98 28 344 309 289 273 259 229 197 172 158 158 159 158 152 153 157 156 156 153 151 150 152 156 160 165 166 163 160 161 167 169 167 172 173 184 200 206 283 6 24 36 37
302 306 274 267 267 253 246 217 182 169 163 156 154 154 152 149 153 153 154 154 153 151 154 157 160 167 171 170 167 167 172 176 174 179 185 184 189 202 214 238 256 271 324 7
250 253 261 253 214 206 168 164 158 154 153 147 150 150 151 152 155 156 155 154 154 154 157 162 165 171 172 173 173 176 178 183 180 190 191 191 199 213 228 240 255 269 287 287
242 245 232 158 164 156 151 151 147 146 149 145 147 151 153 151 152 154 156 158 158 162 166 168 170 176 177 178 179 182 187 191 189 198 206 208 214 230 238 245 252 264 278 292
203 170 183 148 148 138 146 141 143 143 145 146 149 151 152 154 155 158 161 163 164 170 171 173 174 180 182 185 185 190 194 208 199 204 215 222 226 231 242 254 258 276 277 251
93 142 297 169 147 118 102 123 132 141 149 152 154 156 159 163 164 165 166 167 169 172 177 180 180 186 189 193 194 196 207 213 215 214 222 228 232 235 240 248 256 269 282 271
217 176 114 54 108 102 99 112 119 131 146 159 161 163 166 168 169 170 171 172 174 178 184 187 193 195 198 201 201 205 218 221 219 217 224 232 236 238 241 240 265 263 258 253
173 139 126 194 126 108 70 70 112 133 151 160 165 163 167 171 172 173 176 180 185 189 191 194 206 203 207 213 217 215 228 230 233 232 233 233 244 228 242 231 254 253 257 249
139 149 171 143 161 133 162 162 163 155 157 164 163 164 169 168 174 177 179 186 190 194 190 204 208 213 215 219 223 226 233 247 245 246 228 237 238 239 230 248 239 237 246 257
154 147 137 134 126 126 134 135 133 131 138 148 151 158 162 165 170 173 182 200 185 208 205 209 214 214 216 214 221 228 232 242 253 253 240 238 238 233 229 226 233 260 235 253
143 134 125 129 134 129 125 121 125 133 136 138 143 153 160 168 172 181 199 198 193 216 198 214 216 215 224 218 227 234 249 255 261 258 249 246 234 225 217 218 224 265 233 242
136 129 123 123 124 116 114 120 128 130 136 144 155 163 169 171 192 192 206 188 199 213 205 227 232 228 232 233 234 242 261 262 250 272 237 252 238 216 198 221 228 258 234 247
128 127 129 128 124 125 128 132 130 134 142 153 165 180 190 203 201 199 199 210 224 219 226 236 236 243 244 229 240 250 257 265 261 255 260 240 207 184 196 221 225 204 237 260
120 122 123 127 129 130 130 129 130 139 146 147 155 165 171 185 188 185 194 191 221 218 207 228 239 253 234 235 243 252 260 260 260 227 216 190 186 192 201 209 236 240 254 257
118 121 121 121 124 127 129 126 125 128 131 139 140 148 162 169 185 174 187 197 189 208 210 227 239 239 222 226 227 241 232 215 208 190 189 190 192 195 199 216 241 246 247 250